1st Responders/1st Detectors/Storm Spotters Weather Summary for Lewis County, KY

Forecast Maps


Reg. NEXRAD Animation


National Fire Danger: Day 1 & 2 Map

Current NWS Watch/Warnings

SPC Convective Day 1 Outlook


Day 2 Outlook

(Click images to enlarge|Page will refresh every 5 minutes)
UK Ag. Weather Center Desktop Severe Weather Service[HERE]
Lewis County, KY Hazardous Weather Outlook Webcast
(9 AM to 9 PM Mon-Fri)
[Fast]
[Dial-up]


UKAWC 1st Detectors/1st Responders Precision Weather Forecast For LEWIS County, Kentucky
(based on the NWS County Digital Forecast)

ISSUED AT 18:00 UTC ON TUESDAY OCT 23 2018
DAY TUESDAY
EDT 3HR 3P 4P 5P 6P 7P
MAX/MIN -- -- -- -- 61°
TEMP 61° 61° 61° 59° 54°
SKY COVER 0% 0% 0% 0% 1%
Clouds
DEW PT 40° 38° 38° 38° 38°
RH 45% 42% 42% 43% 55%
POP 12HR -- -- -- -- --
RAIN/SNOW (liq.equ) -- -- -- -- --
SNOWFALL -- -- -- -- --
WIND SPEED(MPH) 7 7 8 7 6
WIND Gust(MPH) 7 7 9 7 6
WIND DIR W NW NW NW NW
DEW -- -- -- -- --
HeatIndex 61 61 61 59 54
Rain Showers -- -- -- -- --
WIND CHILL -- -- -- -- --
SPRAY COND
DRY COND
LIVESTOCK COLDSTRESS
LIVESTOCK HEATSTRESS 60.33 60.30 60.30 58.94 55.19



DAY WEDNESDAY THURSDAY FRIDAY SATURDAY SUNDAY MONDAY
EDT 6HR 8P 9P 10P 11P MIDN 1A 2A 3A 4A 5A 6A 7A 8A 9A 10A 11A NOON 1P 2P 3P 4P 5P 6P 7P 8P 9P 10P 11P MIDN 1A 2A 5A 8A 11A 2P 5P 8P 2A 8A 2P 8P 2A 8A 2P 8P 2A 8A 2P 8P 2A 8A 2P 8P
MAX/MIN -- -- -- -- -- -- -- -- -- -- -- -- 36° -- -- -- -- -- -- -- -- -- -- 54° -- -- -- -- -- -- -- -- 32° -- -- 50° -- -- 38° 47° -- -- 41° 50° -- -- 40° 49° -- -- 40° 49° --
TEMP 52° 49° 47° 45° 43° 41° 40° 38° 38° 36° 36° 36° 36° 36° 40° 45° 47° 49° 52° 52° 54° 52° 52° 47° 45° 43° 41° 40° 38° 38° 36° 34° 32° 43° 49° 49° 43° 38° 40° 47° 45° 41° 41° 49° 47° 43° 41° 49° 45° 43° 41° 49° 45°
SKY COVER 1% 1% 1% 1% 1% 2% 2% 2% 2% 2% 2% 2% 2% 3% 4% 4% 3% 3% 2% 2% 3% 3% 3% 3% 3% 3% 4% 4% 6% 8% 10% 21% 35% 53% 68% 81% 93% 90% 100% 100% 100% 100% 100% 100% 99% 100% 100% 83% 96% 94% 100% 86% 88%
Clouds
DEW PT 38° 36° 36° 34° 34° 34° 36° 34° 34° 34° 34° 34° 34° 34° 34° 34° 34° 34° 34° 32° 32° 32° 31° 32° 32° 31° 31° 31° 31° 32° 32° 31° 31° 32° 34° 34° 34° 34° 36° 41° 43° 40° 40° 43° 43° 43° 40° 43° 43° 41° 40° 40° 40°
RH 58% 63% 65% 67% 69% 72% 81% 85% 88% 92% 92% 92% 91% 89% 78% 67% 60% 53% 50% 46% 45% 46% 46% 55% 59% 64% 67% 72% 75% 81% 85% 92% 92% 67% 56% 58% 70% 81% 85% 82% 89% 96% 92% 76% 89% 95% 96% 79% 92% 96% 92% 73% 82%
POP 12HR 0% -- -- -- -- -- -- -- -- -- -- -- 0% -- -- -- -- -- -- -- -- -- -- -- 0% -- -- -- -- -- -- -- 0% -- -- -- 12% -- 20% -- 62% -- 57% -- 51% -- 48% -- 59% -- 48% -- 40%
RAIN/SNOW (liq.equ) 0.00in -- -- -- -- -- 0.00in -- -- -- -- -- 0.00in -- -- -- -- -- 0.00in -- -- -- -- -- 0.00in -- -- -- -- -- 0.00in -- 0.00in -- 0.00in -- 0.00in -- -- -- -- -- -- -- -- -- -- -- -- -- -- -- --
SNOWFALL 0in -- -- -- -- -- 0in -- -- -- -- -- 0in -- -- -- -- -- 0in -- -- -- -- -- 0in -- -- -- -- -- 0in -- 0in -- 0in -- 0in -- -- -- -- -- -- -- -- -- -- -- -- -- -- -- --
WIND SPEED(MPH) 5 5 5 5 5 5 5 2 2 5 2 2 5 5 5 6 6 6 6 6 6 6 5 5 2 2 2 2 2 5 5 2 2 2 5 2 1 5 6 7 5 1 0 2 1 1 2 7 6 6 6 8 6
WIND DIR NW NW N N N N N N N N N N N N N NE N N N N N N N N N N NE NE NE NE NE NE NE E E E NE E E E E NE NE SW W SW SW W W W W W W
HeatIndex 52 49 47 42 40 39 38 36 35 33 33 33 32 33 38 41 47 49 52 52 54 52 52 47 45 41 40 37 36 34 33 31 29 41 49 49 43 35 35 47 45 41 41 49 47 43 40 49 45 39 38 49 45
Rain Showers -- -- -- -- -- -- -- -- -- -- -- -- -- -- -- -- -- -- -- -- -- -- -- -- -- -- -- -- -- -- -- -- -- -- -- -- -- -- Slight Chance Likely Likely Chance Chance Chance Chance Chance Chance Likely Chance Chance Chance Chance Chance
WIND CHILL -- -- -- 43° 40° 38° 37° -- -- 32° -- -- 32° 32° 37° 42° -- -- -- -- -- -- -- -- -- -- -- -- -- 35° 32° -- -- -- -- -- -- 35° 36° -- 43° -- -- -- -- -- -- -- 42° 39° 37° -- 42°
SPRAY COND
DRY COND
LIVESTOCK COLDSTRESS
LIVESTOCK HEATSTRESS 53.57 50.99 49.27 47.50 45.69 43.74 41.96 39.72 39.37 37.00 37.00 37.00 37.13 37.38 42.27 47.50 49.60 51.53 53.87 54.02 55.45 54.02 54.02 49.92 48.11 46.13 44.23 42.90 40.86 40.17 37.88 35.09 33.18 45.87 51.37 51.26 45.61 40.17 41.55 48.17 45.83 41.39 41.78 50.29 47.71 43.43 41.39 50.13 45.61 43.35 41.78 50.46 46.37

Click on individual weather variable above in left-hand column (ie., TEMP, RH, QPF 12HR) to view state forecast maps






NWS 48 Hr. Forecast Maps,

Regional Hourly Observations For LEWIS County, Kentucky
Issued at 200 PM EDT TUE OCT 23 2018
NORTHEAST KENTUCKY
  
CITY           SKY/WX    TMP DP  RH WIND       PRES   REMARKS
LEXINGTON      NOT AVBL                                               
COVINGTON      FAIR      62  29  28 NW13      30.19F                  
FRANKFORT      FAIR      66  37  34 NW6       30.18F                  


Current NOWCAST not available:
Nowcasts are not issued routinely during fair weather. Only when
precipitation or other significant weather is occuring in this county will these
forecasts be issued. Currently, there is no short term forecast in effect.


Fire Weather Forecast For LEWIS County, KY
Provided by the National Weather Service:

Issued at: Tue Oct 23 14:57:35 EDT 2018

CLOUD COVER                     Clear        Clear       MClear        PCldy
PRECIP TYPE                      None         None         None         None
CHANCE PRECIP (%)                   0            0            0            0
TEMP (24H TREND)              34 (-6)      53 (-8)           32           51
RH % (24H TREND)              92 (+6)       43 (0)           95           51
20FTWND-AM(MPH)                            Lgt/Var                   Lgt/Var
20FTWND-PM(MPH)               Lgt/Var      Lgt/Var      Lgt/Var      Lgt/Var
PRECIP AMOUNT                    0.00         0.00         0.00         0.00
PRECIP DURATION                                                             
MIXING HGT(FT-AGL)                            4380                      2540
TRANSPORT WND (MPH)                           N  9                     SE  7
LAL                                 1            1            1            1
HAINES INDEX                        4            4            4            4

REMARKS...None.

.FORECAST FOR DAYS 3 THROUGH 7...
.THURSDAY NIGHT...Cloudy. Lows in the upper 30s. East winds around 5 mph. 
.FRIDAY...Cloudy with showers likely. Highs in the upper 40s. East winds
around 5 mph. 
.SATURDAY...Cloudy with showers likely. Lows in the lower 40s. Highs in
the lower 50s. Northwest winds around 5 mph. 
.SUNDAY...Cloudy with a chance of showers. Lows in the lower 40s. Highs
around 50. West winds around 5 mph. 
.MONDAY...Cloudy with showers likely. Lows in the lower 40s. Highs around
50. West winds 5 to 10 mph. 
.TUESDAY...Partly cloudy. Lows in the upper 30s. Highs in the mid 50s.
West winds 5 to 10 mph. 

SPC's Fire Weather Web Tool (Excellent!), SPC's Fire Weather Outlooks, NWS Fire Weather WEB, Fire Danger Class Map,
Keetch-Byram Drought Index, ROMAN Web, Haines Index ,
WFAS's 10-hr Dead Fuel Moist., WFAS's 100-hr Dead Fuel Moist., Probablity of Ignition, Visual blackness Map, Palmer Drought Index, HPC's Rainfall Forecast Maps


Hazardous Weather Outlook For LEWIS County, Kentucky
505 AM EDT Tue Oct 23 2018

 DAY ONE  Today and Tonight.

No hazardous weather is expected at this time.

 DAYS TWO THROUGH SEVEN  Wednesday through Monday.

No hazardous weather is expected at this time.

 SPOTTER INFORMATION STATEMENT  

Spotter activation is not expected at this time.

Latest LEWIS County, Kentucky Watches, Warnings and Advisories.
Additional Drought Info.: UKAWC Drought Page, Kentucky Drought Watch


7-Day Forecast For LEWIS County, KY

TONIGHT
Clear. Lows in the mid 30s. North winds 5 to 10 mph.

WEDNESDAY
Sunny. Highs in the lower 50s. North winds around 5 mph.

WEDNESDAY NIGHT
Mostly clear. Lows in the lower 30s. Northeast winds around 5 mph.

THURSDAY
Partly cloudy. Highs in the lower 50s. East winds around 5 mph.

THURSDAY NIGHT
Mostly cloudy. A slight chance of showers after midnight. Lows in the upper 30s. East winds around 5 mph. Chance of rain 20 percent.

FRIDAY
Cloudy. A chance of showers in the morning, then showers likely in the afternoon. Unseasonably cool with highs in the upper 40s. Chance of rain 70 percent.

FRIDAY NIGHT
Cloudy. Showers likely, mainly in the evening. Lows in the lower 40s. Chance of rain 60 percent.

SATURDAY
Cloudy with a 40 percent chance of showers. Highs in the lower 50s.

SATURDAY NIGHT
Cloudy with a 30 percent chance of showers. Lows in the lower 40s.

SUNDAY
Cloudy with a 50 percent chance of showers. Highs around 50.

SUNDAY NIGHT
Cloudy. Showers likely, mainly in the evening. Lows in the lower 40s. Chance of rain 60 percent.

MONDAY
Mostly cloudy with a 40 percent chance of showers. Highs around 50.

MONDAY NIGHT
Mostly cloudy in the evening, then becoming partly cloudy. Lows in the upper 30s.

TUESDAY
Partly cloudy in the morning, then clearing. Highs in the mid 50s.

Ag Weather Center, Department of Biosystems & Agricultural Engineering, University of Kentucky